Tracking 28126 objects as of 1-Oct-2023
HD Live streaming from Space Station
objects crossing your sky now

STARLINK-3253

Track STARLINK-3253 now!
10-day predictions
STARLINK-3253 is classified as:


NORAD ID: 51136
Int'l Code: 2022-005AJ
Perigee: 545.9 km
Apogee: 547.8 km
Inclination: 53.2 °
Period: 95.4 minutes
Semi major axis: 6917 km
RCS: Unknown
Launch date: January 19, 2022
Source: United States (US)
Launch site: AIR FORCE EASTERN TEST RANGE (AFETR)
Your satellite tracking list
Your tracking list is empty




NASA's NSSDC Master Catalog

Two Line Element Set (TLE):
1 51136U 22005AJ  23274.46195244  .00003079  00000-0  21136-3 0  9993
2 51136  53.2170 335.5097 0001379  84.0068 276.1081 15.08852582 94332
Source of the keplerian elements: AFSPC